{"data":{"norad_id":38331,"intl_designator":"2012-023A","name":"JCSAT-13","alt_names":[],"object_type":"PAYLOAD","status":"ACTIVE","operator":null,"country":"JPN","launch_date":"2012-05-15","launch_site_code":"FRGUI","launch_vehicle":null,"mission":null,"orbit_class":"UNKNOWN","rcs_meters":39.8107,"size_class":null,"mass_kg":null,"dimensions":null,"purposes":["comms"],"wikipedia_slug":null,"has_3d_model":false,"image_url":null,"decayed_at":null,"tle_current":{"epoch":"2026-09-19T22:41:33.402336Z","epoch_age_seconds":66024,"freshness":"FRESH","line1":"1 38331U 12023A   26262.94552549 -.00000360  00000+0  00000+0 0  9995","line2":"2 38331   0.0171 211.5730 0002367 318.1536 293.5329  1.00270785 52508","mean_motion":1.00270785,"eccentricity":0.0002367,"inclination_deg":0.0171,"raan_deg":211.573,"arg_perigee_deg":318.1536,"mean_anomaly_deg":293.5329,"bstar":0,"rev_number":5250,"period_min":1436.1112262161,"perigee_km":35776.89484141,"apogee_km":35796.855758233,"semimajor_km":42165.012299822,"source":"CELESTRAK","updated_at":"2026-09-20T09:00:35.174423Z"}}}